This is the latest recevied weather packets stored in our database for station/object N0FDH. If no packets are shown the sender has not sent any weather packets the latest 1 day(s).
| Time | Temp. | Humidity | Pressure | Rain* | Wind** | Luminosity | Snow |
|---|---|---|---|---|---|---|---|
| 1778037428 | 4.44° C | 57% | 1012 hPa | 0 mm | 1.79 m/s, 314° | 0 W/m² | - |
| 1778037126 | 4.44° C | 57% | 1012.1 hPa | 0 mm | 1.34 m/s, 330° | 0 W/m² | - |
| 1778036824 | 4.44° C | 58% | 1012 hPa | 0 mm | 1.79 m/s, 324° | 0 W/m² | - |
| 1778036521 | 4.44° C | 56% | 1011.9 hPa | 0 mm | 2.68 m/s, 346° | 0 W/m² | - |
| 1778036217 | 4.44° C | 56% | 1012 hPa | 0 mm | 1.79 m/s, 317° | 0 W/m² | - |
| 1778035914 | 4.44° C | 57% | 1012 hPa | 0 mm | 3.58 m/s, 346° | 0 W/m² | - |
| 1778035611 | 4.44° C | 55% | 1011.8 hPa | 0 mm | 2.24 m/s, 306° | 0 W/m² | - |
| 1778035308 | 5° C | 57% | 1011.7 hPa | 0 mm | 1.79 m/s, 331° | 0 W/m² | - |
| 1778035004 | 5° C | 55% | 1011.7 hPa | 0 mm | 1.79 m/s, 328° | 0 W/m² | - |
| 1778034701 | 5° C | 54% | 1011.7 hPa | 0 mm | 2.68 m/s, 330° | 0 W/m² | - |
| 1778034398 | 5.56° C | 56% | 1011.4 hPa | 0 mm | 2.24 m/s, 315° | 0 W/m² | - |
| 1778034096 | 5.56° C | 54% | 1011.2 hPa | 0 mm | 1.34 m/s, 336° | 0 W/m² | - |
| 1778033794 | 5.56° C | 53% | 1011.3 hPa | 0 mm | 1.79 m/s, 313° | 0 W/m² | - |
| 1778033490 | 5.56° C | 54% | 1011.1 hPa | 0 mm | 1.34 m/s, 333° | 0 W/m² | - |
| 1778033188 | 5.56° C | 54% | 1011.1 hPa | 0 mm | 1.34 m/s, 257° | 0 W/m² | - |
| 1778032885 | 5.56° C | 55% | 1011.1 hPa | 0 mm | 0.89 m/s, 312° | 0 W/m² | - |
| 1778032583 | 5.56° C | 56% | 1010.9 hPa | 0 mm | 0.89 m/s, 290° | 0 W/m² | - |
| 1778032279 | 5.56° C | 53% | 1010.9 hPa | 0 mm | 1.79 m/s, 306° | 0 W/m² | - |
| 1778031977 | 5.56° C | 54% | 1010.9 hPa | 0 mm | 2.68 m/s, 316° | 0 W/m² | - |
| 1778031672 | 6.11° C | 55% | 1010.9 hPa | 0 mm | 2.24 m/s, 15° | 0 W/m² | - |
| 1778031371 | 6.11° C | 53% | 1010.8 hPa | 0 mm | 1.34 m/s, 306° | 0 W/m² | - |
| 1778031067 | 6.11° C | 53% | 1010.8 hPa | 0 mm | 1.79 m/s, 293° | 1 W/m² | - |
| 1778030763 | 6.11° C | 53% | 1010.5 hPa | 0 mm | 2.24 m/s, 345° | 1 W/m² | - |
| 1778030460 | 6.11° C | 51% | 1010.5 hPa | 0 mm | 1.34 m/s, 330° | 2 W/m² | - |
| 1778030158 | 6.11° C | 52% | 1010.4 hPa | 0 mm | 2.24 m/s, 347° | 2 W/m² | - |
* Rain latest hour (hover to see other rain measurements)
** Current wind speed in m/s (hover to see current wind gust speed)